FW2057 Weather Reports


time (UTC)temp
C
wind
direction
speed
KPH
gust
KPH
rain 1hr
cm
rain 24hr
cm
rain mn
cm
humidity
%
barometer
mb
20220927013037 19 348 0.0 0.0 0.00 0.00 0.00 52 1020.5
20220927011556 20 348 0.0 0.0 0.00 0.00 0.00 47 1020.4
20220927011513 20 348 0.0 0.0 0.00 0.00 0.00 47 1020.4
20220927010024 21 348 0.0 0.0 0.00 0.00 0.00 42 1020.2
20220927004537 22 348 0.0 1.6 0.00 0.00 0.00 41 1019.9
20220927003109 23 348 0.0 3.2 0.00 0.00 0.00 36 1019.9
20220927001523 25 348 0.0 3.2 0.00 0.00 0.00 33 1019.7
20220927000013 26 5 1.6 4.8 0.00 0.00 0.00 31 1019.6
20220926234546 26 341 4.8 9.7 0.00 0.00 0.00 30 1019.5
20220926233036 27 42 3.2 9.7 0.00 0.00 0.00 29 1019.2
20220926231511 27 346 3.2 12.9 0.00 0.00 0.00 31 1019.1
20220926230022 28 355 3.2 11.3 0.00 0.00 0.00 30 1019.0
20220926224536 28 36 4.8 9.7 0.00 0.00 0.00 28 1019.0
20220926223050 29 344 4.8 12.9 0.00 0.00 0.00 28 1019.1
20220926221541 29 344 4.8 12.9 0.00 0.00 0.00 29 1019.0
20220926220011 30 38 4.8 12.9 0.00 0.00 0.00 27 1018.8
20220926214523 30 360 4.8 16.1 0.00 0.00 0.00 27 1018.9
20220926213017 30 355 6.4 19.3 0.00 0.00 0.00 28 1018.9
20220926211552 30 65 9.7 16.1 0.00 0.00 0.00 27 1018.9
20220926210104 30 349 4.8 9.7 0.00 0.00 0.00 27 1018.9
20220926210022 30 349 4.8 9.7 0.00 0.00 0.00 27 1018.9
20220926204518 30 355 4.8 19.3 0.00 0.00 0.00 28 1019.0
20220926203028 30 348 4.8 17.7 0.00 0.00 0.00 26 1019.0
20220926201542 30 325 6.4 17.7 0.00 0.00 0.00 26 1019.0
20220926200011 30 26 6.4 14.5 0.00 0.00 0.00 25 1019.3
20220926194610 30 321 3.2 16.1 0.00 0.00 0.00 29 1019.5
20220926194527 30 321 3.2 16.1 0.00 0.00 0.00 29 1019.5
20220926193101 30 294 4.8 16.1 0.00 0.00 0.00 28 1019.7
20220926193018 30 294 4.8 16.1 0.00 0.00 0.00 28 1019.7
20220926191550 30 53 6.4 16.1 0.00 0.00 0.00 29 1019.8
20220926190042 30 9 3.2 16.1 0.00 0.00 0.00 31 1020.2
20220926184515 30 10 3.2 14.5 0.00 0.00 0.00 32 1020.4
20220926183027 30 48 6.4 17.7 0.00 0.00 0.00 34 1020.5
20220926181520 29 19 8.0 17.7 0.00 0.00 0.00 32 1020.6
20220926180032 30 36 8.0 19.3 0.00 0.00 0.00 32 1020.8
20220926174606 29 47 4.8 17.7 0.00 0.00 0.00 35 1021.1
20220926173014 29 121 8.0 12.9 0.00 0.00 0.00 35 1021.2
20220926171547 28 30 4.8 16.1 0.00 0.00 0.00 34 1021.3
20220926170021 28 38 4.8 17.7 0.00 0.00 0.00 36 1021.4
20220926164615 28 44 9.7 16.1 0.00 0.00 0.00 34 1021.5
20220926164518 28 44 9.7 16.1 0.00 0.00 0.00 34 1021.5
20220926163026 28 61 6.4 17.7 0.00 0.00 0.00 37 1021.6
20220926161517 27 44 6.4 19.3 0.00 0.00 0.00 37 1021.7
20220926160032 27 59 9.7 19.3 0.00 0.00 0.00 38 1021.8
20220926154605 26 56 4.8 17.7 0.00 0.00 0.00 40 1021.8
20220926154522 26 56 4.8 17.7 0.00 0.00 0.00 40 1021.8
20220926153013 26 43 4.8 17.7 0.00 0.00 0.00 44 1021.9
20220926151613 25 62 6.4 19.3 0.00 0.00 0.00 43 1021.9
20220926151530 25 62 6.4 19.3 0.00 0.00 0.00 43 1021.9
20220926150020 25 36 6.4 14.5 0.00 0.00 0.00 45 1021.7
20220926144555 24 25 3.2 14.5 0.00 0.00 0.00 49 1021.6
20220926144512 24 25 3.2 14.5 0.00 0.00 0.00 49 1021.6
20220926143044 23 25 4.8 17.7 0.00 0.00 0.00 49 1021.4
20220926141519 22 37 3.2 9.7 0.00 0.00 0.00 53 1021.3
20220926140112 22 295 1.6 8.0 0.00 0.00 0.00 57 1021.2
20220926140030 22 295 1.6 8.0 0.00 0.00 0.00 57 1021.2
20220926134521 21 46 3.2 6.4 0.00 0.00 0.00 57 1020.9
20220926133016 21 38 3.2 6.4 0.00 0.00 0.00 59 1020.6
20220926131528 20 14 3.2 6.4 0.00 0.00 0.00 59 1020.3
20220926130018 20 22 3.2 6.4 0.00 0.00 0.00 60 1020.0
20220926124531 19 37 1.6 6.4 0.00 0.00 0.00 59 1019.8
20220926123025 20 50 1.6 4.8 0.00 0.00 0.00 59 1019.6
20220926121538 20 49 1.6 9.7 0.00 0.00 0.00 59 1019.4
20220926120027 20 42 3.2 9.7 0.00 0.00 0.00 60 1019.2
20220926114519 20 22 1.6 6.4 0.00 0.00 0.00 60 1019.2
20220926113014 20 47 1.6 9.7 0.00 0.00 0.00 62 1019.0
20220926111550 20 40 3.2 8.0 0.00 0.00 0.00 63 1018.8
20220926110102 20 53 1.6 9.7 0.00 0.00 0.00 65 1018.7
20220926110020 20 53 1.6 9.7 0.00 0.00 0.00 65 1018.7
20220926104518 20 22 1.6 6.4 0.00 0.00 0.00 67 1018.5
20220926103028 20 56 1.6 9.7 0.00 0.00 0.00 68 1018.4
20220926101540 20 38 1.6 8.0 0.00 0.00 0.00 70 1018.2
20220926100054 20 57 1.6 3.2 0.00 0.00 0.00 71 1018.2
20220926100011 20 57 1.6 3.2 0.00 0.00 0.00 71 1018.2
20220926094609 20 42 1.6 4.8 0.00 0.00 0.00 74 1018.1
20220926094527 20 42 1.6 4.8 0.00 0.00 0.00 74 1018.1
20220926093039 20 53 0.0 4.8 0.00 0.00 0.00 77 1018.0
20220926091553 20 48 0.0 3.2 0.00 0.00 0.00 80 1017.9
20220926090025 20 59 1.6 6.4 0.00 0.00 0.00 83 1017.8
20220926084601 20 232 0.0 1.6 0.00 0.00 0.00 86 1017.9
20220926084519 20 232 0.0 1.6 0.00 0.00 0.00 86 1017.9
20220926083030 20 232 0.0 1.6 0.00 0.00 0.00 86 1017.8
20220926081522 20 232 0.0 0.0 0.00 0.00 0.00 87 1017.9
20220926080038 19 232 0.0 1.6 0.00 0.00 0.00 88 1017.8
20220926074612 19 232 0.0 0.0 0.00 0.00 0.00 88 1017.6
20220926074529 19 232 0.0 0.0 0.00 0.00 0.00 88 1017.6
20220926073019 18 232 0.0 0.0 0.00 0.00 0.00 88 1017.4
20220926071516 18 232 0.0 1.6 0.00 0.00 0.00 88 1017.5
20220926070048 18 232 0.0 1.6 0.00 0.00 0.00 87 1017.5
20220926064519 18 232 0.0 3.2 0.00 0.00 0.00 87 1017.5
20220926063031 18 232 0.0 1.6 0.00 0.00 0.00 87 1017.6
20220926061607 18 232 0.0 3.2 0.00 0.00 0.00 87 1017.7
20220926060037 18 232 0.0 0.0 0.00 0.00 0.00 87 1017.8
20220926054549 18 226 0.0 0.0 0.00 0.00 0.00 87 1017.5
20220926053040 19 226 0.0 0.0 0.00 0.00 0.00 86 1017.5
20220926051515 19 226 0.0 1.6 0.00 0.00 0.00 86 1017.7
20220926050027 19 226 0.0 0.0 0.00 0.00 0.00 86 1017.7
20220926044602 19 226 0.0 0.0 0.00 0.00 0.00 85 1017.6
20220926044519 19 226 0.0 0.0 0.00 0.00 0.00 85 1017.6
20220926043014 19 226 0.0 1.6 0.00 0.00 0.00 84 1017.6
20220926041548 20 226 0.0 0.0 0.00 0.00 0.00 83 1017.5
20220926040101 20 226 0.0 0.0 0.00 0.00 0.00 83 1017.4
20220926040018 20 226 0.0 0.0 0.00 0.00 0.00 83 1017.4
20220926034510 20 226 0.0 0.0 0.00 0.00 0.00 82 1017.5
20220926033109 20 226 0.0 0.0 0.00 0.00 0.00 82 1017.4
20220926033026 20 226 0.0 0.0 0.00 0.00 0.00 82 1017.4
20220926031538 20 226 0.0 1.6 0.00 0.00 0.00 81 1017.4
20220926030028 21 226 0.0 1.6 0.00 0.00 0.00 80 1017.3
20220926024545 21 226 0.0 0.0 0.00 0.00 0.00 79 1017.1
20220926023015 21 226 0.0 0.0 0.00 0.00 0.00 78 1017.0
20220926021526 22 226 0.0 0.0 0.00 0.00 0.00 77 1016.7
20220926020017 22 226 0.0 0.0 0.00 0.00 0.00 76 1016.5
20220926014556 22 226 0.0 0.0 0.00 0.00 0.00 75 1016.4